This is the latest recevied weather packets stored in our database for station/object YN1GRE-3. If no packets are shown the sender has not sent any weather packets the latest 10 day(s).
| Time | Temp. | Humidity | Pressure | Rain* | Wind** | Luminosity | Snow |
|---|---|---|---|---|---|---|---|
| 1778109398 | 27.78° C | 74% | 1011 hPa | 0 mm | - | - | - |
| 1778090099 | 27.22° C | 93% | 1012 hPa | 0 mm | - | - | - |
| 1778086495 | 29.44° C | 93% | 1013 hPa | 0 mm | - | - | - |
| 1778085595 | 30° C | 93% | 1013 hPa | 0 mm | - | - | - |
| 1778083794 | 31.11° C | 93% | 1013 hPa | 0 mm | - | - | - |
| 1778081993 | 27.78° C | 94% | 1013 hPa | 0 mm | - | - | - |
| 1778081093 | 26.11° C | 89% | 1012 hPa | 0 mm | - | - | - |
| 1778079290 | 27.22° C | 89% | 1013 hPa | 0 mm | - | - | - |
| 1778073757 | 25.56° C | 94% | 1011 hPa | 0 mm | - | - | - |
| 1778070025 | 24.44° C | 89% | 1012 hPa | 0 mm | - | - | - |
| 1778067323 | 22.22° C | 90% | 1012 hPa | 0 mm | - | - | - |
| 1778065522 | 23.33° C | 90% | 1012 hPa | 0 mm | - | - | - |
| 1778062691 | 22.22° C | 89% | 1012 hPa | 0 mm | - | - | - |
| 1778060890 | 22.22° C | 89% | 1012 hPa | 0 mm | - | - | - |
| 1778059990 | 22.22° C | 86% | 1012 hPa | 0 mm | - | - | - |
| 1778036827 | 25° C | 83% | 1013 hPa | 0 mm | - | - | - |
| 1778030392 | 22.78° C | 79% | 1012 hPa | 0 mm | - | - | - |
| 1778029491 | 23.33° C | 79% | 1012 hPa | 0 mm | - | - | - |
| 1778025887 | 25.56° C | 79% | 1010 hPa | 0 mm | - | - | - |
| 1778016754 | 30.56° C | 79% | 1010 hPa | 0 mm | - | - | - |
| 1778011220 | 28.33° C | 74% | 1010 hPa | 0 mm | - | - | - |
| 1778009418 | 29.44° C | 74% | 1011 hPa | 0 mm | - | - | - |
| 1778007485 | 30° C | 74% | 1011 hPa | 0 mm | - | - | - |
| 1778005685 | 27.22° C | 74% | 1011 hPa | 0 mm | - | - | - |
| 1777982783 | 25.56° C | 84% | 1012 hPa | 0 mm | - | - | - |
* Rain latest hour (hover to see other rain measurements)
** Current wind speed in m/s (hover to see current wind gust speed)